Flag for U.S.A. Weather past 2 weeks in Charleston, South Carolina, U.S.A.

Now
67 °F

Passing clouds.


Feels Like: 67 °F
Forecast: 56 / 72 °F
Wind: 10 mph from Southwest

Location: Charleston Air Force Base Reporting Station

Current Time: Apr 1, 2015 at 1:55:05 AM

Latest Report: Apr 1, 2015 at 12:56 AM


Visibility: 10 mi

Pressure: 29.93 "Hg

Humidity: 73%

Dew point: 58 °F

Location of CharlestonLocation

Historic Weather in Charleston — Graph

°F

Charleston temperature yesterday

Maximum temperature yesterday: 80 °F (at 3:56 PM)
Minimum temperature yesterday: 50 °F (at 6:56 AM)
Average temperature yesterday: 64 °F

Past Weeks' High & Low Weather Summary

 TemperatureHumidityPressure
High85 °F (Mar 17, 3:56 PM)100% (Mar 20, 12:02 AM)30.46 "Hg (Mar 20, 12:02 AM)
Low35 °F (Mar 29, 6:56 AM)15% (Mar 29, 3:56 PM)29.63 "Hg (Mar 27, 2:56 PM)
Average60 °F73%30.05 "Hg
* Reported Mar 17 12:56 AM — Apr 1 12:56 AM, Charleston, Weather by CustomWeather, © 2015

Note: Actual official high and low records may vary slightly from our data, if they occured in-between our weather recording intervals... More about our weather records

Advertising

Charleston weather history for previous 24 hours

 ConditionsComfort  
Time TempWeatherWind HumidityBarometerVisibility
12:56 AM
Wed, Apr 1
67 °FPassing clouds.10 mph73%29.93 "Hg10 mi
11:56 PM
Tue, Mar 31
67 °FPassing clouds.10 mph73%29.92 "Hg10 mi
10:56 PM64 °FPartly cloudy.7 mph84%29.92 "Hg10 mi
9:56 PM65 °FPassing clouds.9 mph81%29.92 "Hg10 mi
8:56 PM65 °FPassing clouds.13 mph78%29.91 "Hg10 mi
7:56 PM66 °FPassing clouds.14 mph70%29.89 "Hg10 mi
6:56 PM70 °FPassing clouds.14 mph55%29.90 "Hg10 mi
5:56 PM74 °FPassing clouds.16 mph41%29.90 "Hg10 mi
4:56 PM76 °FPassing clouds.18 mph37%29.91 "Hg10 mi
3:56 PM80 °FSunny.16 mph25%29.92 "Hg10 mi
2:56 PM78 °FPassing clouds.15 mph25%29.96 "Hg10 mi
1:56 PM76 °FSunny.10 mph29%30.00 "Hg10 mi
12:56 PM76 °FPassing clouds.10 mph26%30.03 "Hg10 mi
11:56 AM71 °FPassing clouds.6 mph31%30.06 "Hg10 mi
10:56 AM68 °FPassing clouds.No wind44%30.08 "Hg10 mi
9:56 AM63 °FPassing clouds.5 mph58%30.09 "Hg10 mi
8:56 AM57 °FPassing clouds.5 mph78%30.08 "Hg10 mi
7:56 AM52 °FClear.No wind89%30.07 "Hg10 mi
6:56 AM50 °FClear.3 mph93%30.06 "Hg10 mi
5:56 AM51 °FClear.5 mph89%30.06 "Hg10 mi
4:56 AM52 °FClear.6 mph89%30.05 "Hg10 mi
3:56 AM53 °FClear.6 mph89%30.05 "Hg10 mi
2:56 AM54 °FClear.6 mph90%30.06 "Hg10 mi
1:56 AM56 °FClear.6 mph87%30.07 "Hg10 mi
Weather by CustomWeather, © 2015

See weather overviewHow to use our weather pages